Location: Aranbee
(34.0885°N, 118.2342°W)
Time: 14:03:26
(UTC+00:00)

Tiros 1 - Pass Details

Date: 29 November 2020
Orbit: 630 x 663 km, 48.4° (Epoch: 21 January)

Event Time Altitude Azimuth Distance (km) Brightness Sun altitude
Rises 04:00:08 0° 313° (NW) 2,979 11.1 -40.1°
Enters shadow 04:01:19 - 318° (NW) 2,564 10.6 -40.4°
Reaches altitude 10° 04:02:50 10° 326° (NNW) 2,061 - -40.7°
Maximum altitude 04:06:49 26° 24° (NNE) 1,273 - -41.5°
Drops below altitude 10° 04:10:47 10° 81° (E) 2,038 - -42.3°
Sets 04:13:25 0° 94° (E) 2,940 - -42.9°
